Voltar ao catálogo

OPS 0856 DEB

LostPO
NORAD 53882·DEBRIS·🇺🇸 United States

Lançado Aug 19, 1966 de Vandenberg Space Force Base

Loading…

Próximas Passagens (próximas 24 horas)

TLE

ObsoletoSource: Space-Track

Época: Oct 3, 2022, 22:06 UTC

1 53882U 66077AE  22276.92152532  .00003291  00000-0  51237-1 0  9994
2 53882  88.2877 248.5654 2406741  17.1790   5.9102  8.84138252  4676

Acompanhe OPS 0856 DEB em tempo real com AllMySat

Download on the App Store